Time,TemperatureF,DewpointF,PressureIn,WindDirection,WindDirectionDegrees,WindSpeedMPH,WindSpeedGustMPH,Humidity,HourlyPrecipIn,Conditions,Clouds,dailyrainin,SoftwareType,DateUTC
2013-07-09 00:43:00,65.0,54.0,29.97,East,93,22.0,-999.0,66,-99.99,,,-99.99,,2013-07-09 06:43:00,
2013-07-09 00:53:00,65.0,55.0,29.97,ESE,106,19.0,-999.0,72,-99.99,,,-99.99,,2013-07-09 06:53:00,
2013-07-09 01:11:00,63.0,57.0,29.97,North,-999,15.0,-999.0,78,-99.99,,,-99.99,,2013-07-09 07:11:00,
2013-07-09 02:11:00,60.0,57.0,29.99,WSW,255,10.0,-999.0,89,-99.99,,,-99.99,,2013-07-09 08:11:00,
2013-07-09 02:43:00,59.0,56.0,29.97,NNE,27,8.0,-999.0,91,-99.99,,,-99.99,,2013-07-09 08:43:00,
2013-07-09 03:12:00,59.0,57.0,29.96,East,101,11.0,-999.0,93,-99.99,,,-99.99,,2013-07-09 09:12:00,
2013-07-09 03:52:00,58.0,57.0,29.98,West,278,9.0,-999.0,95,-99.99,,,-99.99,,2013-07-09 09:52:00,
2013-07-09 04:11:00,58.0,56.0,29.96,West,265,8.0,-999.0,96,-99.99,,,-99.99,,2013-07-09 10:11:00,
2013-07-09 04:42:00,56.0,56.0,29.99,WNW,295,10.0,-999.0,98,-99.99,,,-99.99,,2013-07-09 10:42:00,
2013-07-09 05:11:00,57.0,55.0,29.98,West,280,8.0,-999.0,95,-99.99,,,-99.99,,2013-07-09 11:11:00,
2013-07-09 05:22:00,57.0,55.0,29.98,West,280,8.0,-999.0,95,-99.99,,,-99.99,,2013-07-09 11:22:00,
2013-07-09 05:53:00,56.0,55.0,29.98,WNW,295,7.0,-999.0,94,-99.99,,,-99.99,,2013-07-09 11:53:00,
2013-07-09 06:11:00,56.0,55.0,30.00,WNW,300,8.0,-999.0,95,-99.99,,,-99.99,,2013-07-09 12:11:00,
2013-07-09 06:33:00,57.0,55.0,29.98,NW,305,7.0,-999.0,94,-99.99,,,-99.99,,2013-07-09 12:33:00,
2013-07-09 06:43:00,58.0,56.0,29.99,NW,308,11.0,-999.0,92,-99.99,,,-99.99,,2013-07-09 12:43:00,
2013-07-09 06:52:00,58.0,56.0,29.99,WNW,291,10.0,-999.0,91,-99.99,,,-99.99,,2013-07-09 12:52:00,
2013-07-09 07:11:00,60.0,56.0,30.00,West,281,11.0,-999.0,88,-99.99,,,-99.99,,2013-07-09 13:11:00,
2013-07-09 07:22:00,60.0,56.0,30.00,West,281,11.0,-999.0,88,-99.99,,,-99.99,,2013-07-09 13:22:00,
2013-07-09 07:43:00,62.0,56.0,30.01,WNW,297,15.0,-999.0,81,-99.99,,,-99.99,,2013-07-09 13:43:00,
2013-07-09 07:53:00,63.0,56.0,29.99,WNW,299,14.0,-999.0,79,-99.99,,,-99.99,,2013-07-09 13:53:00,
2013-07-09 08:11:00,64.0,56.0,30.02,WNW,298,12.0,-999.0,74,-99.99,,,-99.99,,2013-07-09 14:11:00,
2013-07-09 08:22:00,64.0,56.0,30.02,WNW,298,12.0,-999.0,74,-99.99,,,-99.99,,2013-07-09 14:22:00,
2013-07-09 08:43:00,66.0,55.0,30.01,WNW,289,15.0,-999.0,68,-99.99,,,-99.99,,2013-07-09 14:43:00,
2013-07-09 08:53:00,67.0,56.0,30.03,WNW,302,10.0,-999.0,66,-99.99,,,-99.99,,2013-07-09 14:53:00,
2013-07-09 09:12:00,68.0,54.0,30.03,WNW,299,9.0,-999.0,62,-99.99,,,-99.99,,2013-07-09 15:12:00,
2013-07-09 09:22:00,68.0,54.0,30.03,WNW,299,9.0,-999.0,62,-99.99,,,-99.99,,2013-07-09 15:22:00,
2013-07-09 09:43:00,70.0,53.0,30.04,WNW,295,7.0,-999.0,54,-99.99,,,-99.99,,2013-07-09 15:43:00,
2013-07-09 10:43:00,75.0,52.0,30.04,NNW,343,4.0,-999.0,46,-99.99,,,-99.99,,2013-07-09 16:43:00,
2013-07-09 10:52:00,75.0,52.0,30.04,NNW,343,4.0,-999.0,46,-99.99,,,-99.99,,2013-07-09 16:52:00,
2013-07-09 11:02:00,75.0,52.0,30.04,NNW,343,4.0,-999.0,46,-99.99,,,-99.99,,2013-07-09 17:02:00,